Location: Aspen Indian Creek Park
(26.4901°N, 81.9412°W)
Time: 04:19:32
(UTC+00:00)

Daily predictions for brighter satellites

Satellite Brightness Start Highest point End
(mag) Time Altitude Azimuth Time Altitude Azimuth Time Altitude Azimuth
Cosmos 1437 3.3 00:00:56 10° NNE 00:03:38 31° E 00:06:20 10° SSE
Intelsat 5-3 Rocket 4.5 00:01:17 10° WSW 00:04:22 24° S 00:10:04 10° SE
Cosmos 1844 4.4 00:00:31 10° SSE 00:05:28 31° ESE 00:10:23 10° NE
GP-B 3.8 00:01:35 10° N 00:05:56 58° W 00:10:16 10° SSW
Delta 128 3.7 00:01:07 10° W 00:06:21 83° N 00:10:15 15° E
SL-24 R/B 4.3 00:02:45 10° S 00:07:01 76° WSW 00:11:26 10° NNW
MOS 1 Rocket 3.4 00:03:29 10° NNE 00:07:33 40° E 00:11:34 10° S
Cosmos 1782 Rocket 4.1 00:04:54 10° SSW 00:09:14 64° W 00:13:37 10° N
BREEZE-M DEB (TANK) 3.9 00:07:22 10° WSW 00:09:37 36° NW 00:13:40 10° NNE
SL-16 R/B 4.3 00:04:52 10° NW 00:09:44 30° WSW 00:14:36 10° SSW
Cosmos 1844 Rocket 2.9 00:05:01 10° S 00:10:14 44° ESE 00:15:30 10° NE
Delta 168 4.4 00:10:07 10° W 00:14:20 29° SSW 00:17:29 10° SE
CZ-2D R/B 3.5 00:11:43 10° S 00:15:35 73° W 00:19:27 10° NNW
Cosmos 2151 Rocket 4.2 00:14:09 10° SSE 00:18:05 32° E 00:22:02 10° NNE
Cosmos 2150 Rocket 4.0 00:16:55 10° S 00:22:08 63° ESE 00:27:28 10° NNE
Cosmos 2084 Rocket 3.8 00:20:33 10° NNW 00:24:54 48° ENE 00:27:46 20° SE
Cosmos 1125 Rocket 3.8 00:21:34 10° S 00:26:31 42° E 00:31:29 10° NNE
USA 234 3.3 00:21:42 10° NE 00:28:07 58° SE 00:34:32 10° SSW
CZ-2C R/B 2.9 00:28:17 10° NW 00:31:02 20° N 00:32:43 15° NE
Cosmos 1891 Rocket 4.4 00:25:57 10° S 00:32:08 81° E 00:38:14 10° N
Cosmos 2112 Rocket 4.5 00:27:14 10° NNW 00:32:24 63° WSW 00:37:34 10° S
CSL-04 Debris 4.1 00:27:41 10° SSE 00:33:02 71° ENE 00:38:23 10° N
Cosmos 1943 3.1 00:28:07 10° NNW 00:33:47 76° ENE 00:39:27 10° SSE
Exosat Rocket 3.9 00:28:03 10° S 00:34:34 52° ESE 00:39:40 10° NNE
NOSS 3-4 (A) 3.7 00:30:35 10° S 00:35:59 39° ESE 00:41:26 10° NE
NOSS 3-4 (C) 3.7 00:30:43 10° S 00:36:05 38° ESE 00:41:32 10° NE
CSL-04 Rocket 3.6 00:34:27 10° SSE 00:39:48 78° ENE 00:45:15 10° N
DMSP B5D2-2 4.5 00:36:19 10° NNE 00:41:14 39° E 00:46:06 10° SSE
Cosmos 1975 Rocket 3.3 00:38:53 10° NNW 00:43:10 68° W 00:47:26 10° S
Shenzhou-11 Module 3.4 00:45:31 10° W 00:46:55 26° WNW 00:46:55 26° WNW
Meteor 1-15 Rocket 4.2 00:44:07 10° S 00:49:31 54° E 00:55:00 10° NNE
HJ-1C 3.7 00:52:44 27° S 00:54:18 62° W 00:57:33 10° NNW
H-2A R/B 1.9 00:49:52 10° SSE 00:54:47 87° WSW 00:59:47 10° NNW
Cosmos 1603 4.4 00:50:08 10° NNW 00:55:36 54° WSW 01:01:02 10° S
ATLAS 2AS CENTAUR R/B 3.0 00:50:27 10° S 00:58:00 59° ESE 01:05:48 10° NE
Stardust Del rocket 4.4 00:53:01 10° W 01:02:29 59° S 01:03:53 45° SE
Cosmos 2034 Rocket 4.0 00:56:59 10° S 01:03:21 85° W 01:09:44 10° N
Nadezhda 4 Rocket 3.9 01:00:41 10° N 01:06:40 56° E 01:07:55 48° SE
CZ-4 R/B 4.3 01:06:30 10° SW 01:09:25 18° W 01:12:20 10° NW
GOES 2 Rocket 3.0 01:08:18 10° W 01:12:20 70° NNW 01:12:20 70° NNW
IUS-26 SRM-1 3.9 01:07:58 10° WSW 01:12:44 35° SSW 01:12:44 35° SSW
GPS 2-17 Rocket1 4.4 01:09:33 10° SW 01:12:44 28° SSW 01:12:44 28° SSW
CENTAUR R/B 4.3 01:07:27 10° N 01:14:05 25° NE 01:14:15 25° NE
Ariane Rocket 3.3 01:16:43 51° NNE 01:16:43 51° NNE 01:20:46 10° N
Cosmos 1707 4.2 01:18:48 10° NNW 01:22:19 36° W 01:23:10 31° WSW
ARGOS 3.5 01:20:48 23° S 01:24:04 60° W 01:29:20 10° NNW
DELTA 2 R/B (1) 3.6 01:23:59 10° NW 01:29:07 72° NNW 01:29:07 72° NNW
USA 238 DEB 4.4 01:23:04 10° NNW 01:29:18 40° NE 01:29:18 40° NE
USA 238 4.4 01:23:11 10° N 01:29:22 40° NE 01:29:22 40° NE
SL-08 RB Rocket 4.2 01:30:56 56° NW 01:30:56 56° NW 01:34:45 10° NNW
CZ-2C R/B 3.7 01:33:06 10° N 01:38:22 45° WNW 01:43:40 10° SW
Mugunghwa Rocket 4.5 01:48:10 10° W 01:56:43 82° SSW 01:56:43 82° SSW
NOSS 3-2 (A) 4.1 01:49:07 10° NNW 01:56:30 69° NNE 01:56:30 69° NNE
Milstar 3 Cent rocket 3.9 02:11:15 10° W 02:14:14 28° W 02:14:14 28° W
CENTAUR R/B 4.4 02:56:51 10° NNW 03:01:27 36° NW 03:01:27 36° NW
Cosmos 2322 Rocket 2.6 08:55:32 57° E 08:55:32 57° E 09:00:55 10° NNE
SL-16 R/B 2.4 09:05:31 65° NNE 09:05:31 65° NNE 09:10:17 10° NNE
Cosmos 2263 Rocket 3.9 09:00:13 10° N 09:05:11 31° ENE 09:10:07 10° SE
SL-4 R/B 4.1 09:08:18 23° N 09:08:18 23° N 09:10:22 10° NNE
H-2A R/B (2) 4.1 09:10:05 20° S 09:10:05 20° S 09:15:16 10° SE
DELTA 4 R/B 4.1 09:03:12 39° W 09:11:00 85° S 09:16:49 10° E
Cosmos 44 Rocket 3.8 09:12:56 53° ESE 09:12:56 53° ESE 09:17:33 10° NE
Chandra Rocket (1) 4.0 09:05:32 37° W 09:12:58 85° SSW 09:18:50 10° ESE
Meteor 1-10 Rocket 4.1 09:17:09 72° NW 09:17:09 72° NW 09:22:38 10° N
Cosmos 1763 Rocket 3.6 09:21:34 61° NNW 09:21:34 61° NNW 09:26:11 10° N
Cosmos 1869 Rocket 3.8 09:19:17 10° N 09:23:34 64° E 09:27:50 10° SSE
CZ-2C R/B 2.4 09:18:36 10° NNE 09:23:47 87° ESE 09:24:58 55° S
Cosmos 967 Rocket 4.4 09:27:03 56° WSW 09:28:10 66° WNW 09:34:34 10° NNE
IRIDIUM 106 4.3 09:23:52 10° N 09:29:06 82° E 09:34:18 10° S
H-2A R/B 2.0 09:27:26 10° SSE 09:31:43 83° ENE 09:36:08 10° N
SJ 16-02 1.9 09:28:52 10° N 09:33:11 58° ENE 09:37:30 10° SSE
Cosmos 1570 Rocket 4.2 09:31:25 24° S 09:34:41 73° ESE 09:40:00 10° NNE
PSLV R/B 4.3 09:31:56 10° N 09:34:43 38° NNW 09:34:43 38° NNW
Meteor 1-5 Rocket 4.0 09:33:17 10° N 09:38:39 83° W 09:44:10 10° S
Landsat 5 3.5 09:37:46 10° S 09:42:14 69° WSW 09:46:44 10° NNW
Cosmos 1605 Rocket 4.0 09:36:33 10° NNW 09:42:49 59° W 09:49:03 10° S
Skynet4D Del rocket 3.5 09:41:59 46° W 09:43:43 90° S 09:49:46 10° E
ERS-2 2.6 09:41:17 10° SSE 09:44:52 59° ENE 09:48:28 10° N
Cosmos 2333 Rocket 4.2 09:40:26 10° SSE 09:45:13 28° ESE 09:50:01 10° NE
Cosmos 540 Rocket 3.3 09:44:37 25° SSW 09:47:37 80° WNW 09:52:48 10° NNE
Yuri Rocket 3.5 09:48:34 40° SW 09:49:54 57° SSE 09:55:10 10° E
PAYLOAD A 4.4 09:46:30 10° N 09:50:29 36° WNW 09:50:29 36° WNW
SL-19 R/B 4.2 09:49:45 10° N 09:54:03 66° WNW 09:55:27 37° SW
Cosmos 990 Rocket 4.3 09:48:54 10° N 09:54:05 67° ENE 09:59:16 10° SSE
ALOS 2.3 09:58:52 10° NNE 10:03:32 83° E 10:08:12 10° S
Cosmos 1484 Rocket 2.8 09:59:35 10° N 10:03:36 90° WSW 10:07:35 10° SSW
Hubble Space Telescope 3.2 10:05:45 10° S 10:08:13 15° SSE 10:10:41 10° ESE
Cosmos 1437 Rocket 3.0 10:05:48 10° S 10:09:31 68° E 10:13:17 10° NNE
Cosmos 1536 2.7 10:06:41 10° N 10:10:45 84° W 10:14:48 10° S
OAO 3 Rocket 4.5 10:09:51 12° SSW 10:13:57 36° SSE 10:18:29 10° E
Meteor 1-31 Rocket 2.6 10:11:16 10° N 10:15:06 78° WNW 10:18:58 10° SSW
DASH 2.9 10:14:08 21° W 10:16:42 40° SSW 10:19:18 10° SE
IUS-13 SRM-1 3.7 10:16:26 14° SSW 10:17:06 15° S 10:19:24 10° SSE
Meteor 1-11 Rocket 3.8 10:12:52 10° NNW 10:18:25 55° W 10:23:49 10° S
Meteor 1-27 Rocket 4.5 10:14:10 11° SW 10:19:14 32° WNW 10:24:29 10° NNW
Cosmos 2100 Rocket 4.0 10:13:09 10° N 10:19:32 80° W 10:25:51 10° S
Cosmos 2360 Rocket 2.6 10:17:16 11° SW 10:22:17 41° WNW 10:27:38 10° N
Cosmos 1515 4.4 10:18:38 10° S 10:22:20 56° E 10:26:04 10° NNE
ADEOS Rocket 3.3 10:16:44 10° S 10:23:51 65° WSW 10:30:18 10° NNW
deb Chang Zheng 4 4.2 10:20:01 10° N 10:23:52 34° WNW 10:27:43 10° SW
Cosmos 1802 Rocket 4.1 10:18:36 10° N 10:24:50 82° E 10:31:09 10° S
METEOR-M 4.1 10:23:39 10° N 10:28:57 65° WNW 10:34:13 10° SSW
Cosmos 1898 Rocket 3.6 10:24:47 10° NNW 10:29:56 56° WSW 10:35:05 10° S
ATLAS 2AS CENTAUR R/B 4.4 10:24:15 10° N 10:30:45 35° NE 10:36:45 10° ESE
Cosmos 2123 Rocket 3.9 10:24:35 10° S 10:30:47 75° W 10:37:03 10° N
SAR-Lupe-4 3.4 10:29:11 10° S 10:32:44 70° WSW 10:36:19 10° NNW
Cosmos 2242 Rocket 3.5 10:28:28 10° S 10:32:52 86° W 10:37:16 10° N
Cosmos 1666 3.7 10:29:51 10° NW 10:32:56 24° W 10:35:57 10° SW
Cosmos 1459 Rocket 3.9 10:28:33 10° NNW 10:34:31 63° W 10:40:27 10° S
USA 234 3.3 10:29:31 10° SE 10:36:02 83° SW 10:42:36 10° NW
Okean 1-7 3.5 10:32:28 10° S 10:36:42 66° E 10:40:55 10° NNE
Cosmos 2322 Rocket 3.9 10:37:25 11° W 10:39:41 14° WNW 10:42:33 10° NNW
FENGYUN 3A 4.1 10:35:22 10° N 10:40:21 40° WNW 10:45:21 10° SW
Cosmos 858 Rocket 4.5 10:35:15 10° NNW 10:40:23 65° WSW 10:45:31 10° S
SAR-Lupe-1 4.3 10:41:29 10° S 10:44:53 46° W 10:48:20 10° NNW
SKYMED 2 4.1 10:42:26 10° SSE 10:46:42 64° ENE 10:51:00 10° N
H-2A R/B 4.2 10:44:29 10° NNE 10:47:57 40° E 10:51:25 10° S
Cosmos 2263 Rocket 3.1 10:44:19 10° NW 10:48:51 25° WSW 10:53:24 10° SSW
BREEZE-M DEB (TANK) 4.2 10:45:19 10° WSW 10:48:52 53° NNW 11:00:19 10° NE
GEOS 3 Rocket 4.1 10:47:07 10° NE 10:52:28 68° ESE 10:57:42 10° SSW
Cosmos 1733 Rocket 3.7 10:50:14 10° NNW 10:54:02 31° W 10:57:51 10° SSW
Cosmos 1844 Rocket 3.6 10:49:32 10° N 10:55:05 56° ENE 11:00:37 10° SSE
Cosmos 1937 Rocket 3.8 10:50:26 10° NNW 10:55:16 43° W 11:00:06 10° S
